QPF
0.00 0.00 0.00 0.00 0.00 0.00 0.00 0.00 0.00 0.00 0.00 0.00 0.00 0.00 0.00 0.00 0.01 0.01 0.00 0.00 0.00 0.00 0.00 0.01 0.01 0.01 0.01 0.01 0.02 0.04 0.05 0.06 0.05 0.04 0.03 0.03 0.04 0.05 0.04 0.03 0.05 0.08 0.11 0.15 0.19 0.21 0.18 0.16 0.17
0.00 0.00 0.00 0.00 0.00 0.00 0.00 0.00 0.00 0.00 0.00 0.00 0.00 0.00 0.00 0.00 0.00 0.00 0.00 0.00 0.00 0.00 0.00 0.01 0.01 0.01 0.01 0.01 0.02 0.03 0.04 0.04 0.04 0.03 0.04 0.05 0.07 0.08 0.06 0.06 0.08 0.09 0.09 0.14 0.24 0.34 0.32 0.24 0.18
0.00 0.00 0.00 0.00 0.00 0.00 0.00 0.00 0.00 0.00 0.00 0.00 0.00 0.00 0.00 0.00 0.00 0.00 0.00 0.00 0.00 0.00 0.00 0.01 0.02 0.02 0.02 0.01 0.01 0.02 0.04 0.05 0.05 0.04 0.04 0.06 0.08 0.08 0.08 0.10 0.10 0.09 0.07 0.06 0.07 0.10 0.16 0.14 0.11
0.00 0.00 0.00 0.00 0.00 0.00 0.00 0.00 0.00 0.00 0.00 0.00 0.00 0.00 0.00 0.00 0.00 0.00 0.00 0.00 0.00 0.01 0.01 0.01 0.01 0.02 0.03 0.02 0.02 0.03 0.05 0.09 0.10 0.09 0.08 0.08 0.10 0.13 0.14 0.15 0.12 0.10 0.08 0.08 0.07 0.07 0.08 0.08 0.07
0.00 0.00 0.00 0.00 0.00 0.00 0.00 0.00 0.00 0.00 0.00 0.00 0.00 0.00 0.00 0.00 0.00 0.00 0.01 0.01 0.00 0.01 0.01 0.02 0.02 0.02 0.03 0.02 0.02 0.03 0.05 0.08 0.11 0.14 0.16 0.13 0.11 0.12 0.14 0.15 0.10 0.07 0.08 0.09 0.08 0.07 0.07 0.07 0.07
0.00 0.00 0.00 0.00 0.00 0.00 0.00 0.00 0.00 0.00 0.00 0.00 0.00 0.00 0.00 0.00 0.00 0.02 0.02 0.01 0.00 0.01 0.01 0.01 0.02 0.03 0.03 0.02 0.03 0.03 0.04 0.05 0.06 0.11 0.19 0.16 0.11 0.10 0.10 0.10 0.09 0.07 0.07 0.07 0.08 0.09 0.09 0.08 0.10
0.00 0.00 0.00 0.00 0.00 0.00 0.00 0.00 0.00 0.00 0.00 0.00 0.00 0.01 0.00 0.00 0.02 0.02 0.03 0.01 0.00 0.01 0.01 0.01 0.02 0.03 0.03 0.04 0.04 0.03 0.03 0.04 0.05 0.07 0.11 0.11 0.10 0.09 0.08 0.08 0.07 0.06 0.08 0.09 0.09 0.12 0.13 0.12 0.12
0.00 0.00 0.00 0.00 0.00 0.00 0.00 0.00 0.00 0.00 0.00 0.00 0.00 0.00 0.00 0.01 0.02 0.02 0.03 0.01 0.00 0.01 0.01 0.01 0.01 0.03 0.03 0.04 0.04 0.05 0.04 0.04 0.05 0.06 0.07 0.08 0.08 0.07 0.07 0.06 0.06 0.06 0.08 0.09 0.09 0.12 0.14 0.14 0.13
0.00 0.00 0.00 0.00 0.00 0.00 0.00 0.00 0.01 0.01 0.00 0.00 0.00 0.00 0.00 0.00 0.01 0.01 0.03 0.01 0.01 0.01 0.01 0.01 0.02 0.03 0.04 0.04 0.04 0.04 0.04 0.04 0.05 0.07 0.06 0.06 0.06 0.06 0.05 0.05 0.05 0.05 0.05 0.06 0.07 0.07 0.07 0.07 0.09
0.00 0.00 0.00 0.00 0.00 0.00 0.00 0.00 0.01 0.01 0.01 0.00 0.00 0.00 0.00 0.00 0.00 0.01 0.01 0.00 0.00 0.01 0.01 0.01 0.02 0.02 0.03 0.04 0.05 0.05 0.05 0.04 0.04 0.05 0.06 0.04 0.04 0.05 0.05 0.06 0.07 0.10 0.08 0.08 0.09 0.09 0.05 0.06 0.08
0.00 0.00 0.00 0.00 0.00 0.01 0.01 0.01 0.01 0.01 0.01 0.00 0.00 0.00 0.00 0.00 0.00 0.00 0.00 0.00 0.01 0.01 0.01 0.01 0.02 0.02 0.03 0.04 0.04 0.04 0.04 0.04 0.03 0.03 0.03 0.04 0.04 0.03 0.04 0.06 0.10 0.17 0.14 0.12 0.09 0.09 0.06 0.05 0.07
0.00 0.00 0.00 0.00 0.00 0.00 0.01 0.01 0.01 0.01 0.01 0.01 0.00 0.00 0.00 0.00 0.00 0.00 0.00 0.01 0.01 0.01 0.01 0.02 0.03 0.03 0.03 0.04 0.05 0.05 0.05 0.04 0.03 0.04 0.03 0.03 0.03 0.03 0.03 0.04 0.05 0.09 0.11 0.09 0.06 0.06 0.05 0.05 0.09
0.00 0.00 0.00 0.00 0.00 0.00 0.00 0.00 0.00 0.00 0.00 0.01 0.00 0.00 0.00 0.00 0.00 0.01 0.01 0.01 0.01 0.01 0.01 0.02 0.03 0.04 0.03 0.04 0.06 0.07 0.05 0.04 0.04 0.03 0.04 0.04 0.04 0.03 0.03 0.03 0.04 0.05 0.06 0.08 0.06 0.05 0.05 0.05 0.05
0.00 0.00 0.00 0.00 0.00 0.00 0.00 0.00 0.00 0.00 0.00 0.00 0.00 0.00 0.00 0.00 0.01 0.02 0.01 0.01 0.01 0.01 0.02 0.03 0.04 0.05 0.03 0.03 0.05 0.05 0.03 0.02 0.02 0.02 0.02 0.03 0.05 0.05 0.05 0.06 0.05 0.04 0.05 0.05 0.06 0.06 0.06 0.05 0.05
0.00 0.00 0.00 0.00 0.00 0.00 0.00 0.00 0.00 0.01 0.00 0.00 0.00 0.00 0.01 0.01 0.01 0.01 0.01 0.01 0.01 0.02 0.03 0.02 0.03 0.05 0.04 0.03 0.04 0.04 0.02 0.02 0.01 0.01 0.02 0.01 0.03 0.06 0.08 0.09 0.07 0.05 0.04 0.04 0.05 0.06 0.06 0.05 0.04
0.00 0.00 0.00 0.00 0.00 0.00 0.00 0.00 0.00 0.00 0.00 0.00 0.00 0.00 0.01 0.01 0.01 0.00 0.01 0.01 0.01 0.02 0.03 0.02 0.02 0.03 0.03 0.03 0.03 0.03 0.03 0.02 0.02 0.01 0.02 0.01 0.01 0.02 0.04 0.06 0.07 0.07 0.07 0.06 0.05 0.05 0.05 0.04 0.04
0.00 0.00 0.00 0.00 0.01 0.00 0.00 0.00 0.00 0.00 0.01 0.00 0.00 0.00 0.00 0.01 0.01 0.00 0.00 0.01 0.01 0.02 0.03 0.02 0.02 0.02 0.02 0.03 0.04 0.04 0.03 0.03 0.02 0.02 0.03 0.02 0.02 0.01 0.02 0.03 0.04 0.04 0.05 0.08 0.09 0.06 0.04 0.04 0.04
0.00 0.00 0.00 0.00 0.00 0.01 0.01 0.00 0.00 0.00 0.00 0.00 0.01 0.01 0.00 0.00 0.00 0.01 0.00 0.00 0.01 0.01 0.02 0.02 0.02 0.02 0.02 0.02 0.03 0.06 0.04 0.04 0.04 0.04 0.04 0.03 0.03 0.02 0.03 0.03 0.03 0.02 0.02 0.03 0.07 0.09 0.07 0.04 0.03
0.00 0.00 0.00 0.00 0.00 0.01 0.01 0.00 0.00 0.00 0.00 0.00 0.00 0.00 0.01 0.00 0.00 0.01 0.01 0.01 0.01 0.01 0.01 0.02 0.03 0.02 0.02 0.02 0.02 0.03 0.04 0.04 0.04 0.03 0.04 0.04 0.04 0.03 0.04 0.04 0.04 0.03 0.02 0.02 0.03 0.04 0.05 0.05 0.04
0.00 0.00 0.00 0.00 0.00 0.00 0.00 0.00 0.00 0.00 0.00 0.00 0.00 0.00 0.00 0.00 0.00 0.01 0.01 0.02 0.01 0.01 0.01 0.01 0.02 0.02 0.02 0.02 0.02 0.02 0.04 0.04 0.03 0.03 0.05 0.05 0.04 0.04 0.04 0.04 0.03 0.03 0.02 0.02 0.02 0.03 0.03 0.03 0.05
0.00 0.00 0.00 0.00 0.00 0.00 0.00 0.00 0.00 0.00 0.00 0.00 0.00 0.00 0.00 0.00 0.00 0.00 0.01 0.01 0.01 0.00 0.00 0.00 0.01 0.02 0.02 0.02 0.02 0.02 0.03 0.04 0.03 0.03 0.04 0.03 0.02 0.03 0.03 0.03 0.03 0.02 0.02 0.02 0.02 0.03 0.03 0.04 0.04
0.00 0.00 0.00 0.01 0.01 0.01 0.01 0.01 0.00 0.00 0.00 0.00 0.00 0.00 0.00 0.00 0.00 0.00 0.00 0.00 0.01 0.01 0.00 0.01 0.01 0.01 0.01 0.01 0.01 0.01 0.02 0.03 0.03 0.04 0.04 0.04 0.02 0.02 0.02 0.02 0.02 0.02 0.01 0.02 0.02 0.02 0.04 0.05 0.04
0.00 0.00 0.00 0.01 0.01 0.01 0.01 0.01 0.00 0.00 0.00 0.00 0.00 0.00 0.00 0.00 0.00 0.00 0.01 0.01 0.01 0.00 0.01 0.01 0.01 0.01 0.01 0.01 0.01 0.01 0.02 0.02 0.02 0.03 0.05 0.05 0.03 0.02 0.02 0.02 0.02 0.02 0.03 0.03 0.02 0.03 0.04 0.04 0.04
0.00 0.01 0.01 0.01 0.01 0.01 0.01 0.01 0.01 0.00 0.00 0.00 0.00 0.00 0.00 0.00 0.01 0.01 0.01 0.00 0.01 0.01 0.01 0.01 0.01 0.01 0.01 0.01 0.01 0.02 0.02 0.03 0.04 0.05 0.07 0.05 0.04 0.04 0.03 0.03 0.03 0.03 0.04 0.04 0.03 0.04 0.04 0.04 0.04
0.01 0.01 0.01 0.01 0.01 0.01 0.01 0.01 0.00 0.00 0.00 0.00 0.00 0.00 0.00 0.00 0.00 0.01 0.01 0.02 0.03 0.02 0.01 0.01 0.01 0.01 0.02 0.02 0.03 0.03 0.04 0.05 0.07 0.08 0.07 0.05 0.05 0.04 0.03 0.03 0.03 0.04 0.04 0.05 0.06 0.07 0.06 0.05 0.05
0.01 0.01 0.01 0.01 0.01 0.01 0.01 0.01 0.00 0.00 0.00 0.00 0.00 0.00 0.01 0.01 0.01 0.01 0.03 0.04 0.04 0.03 0.02 0.02 0.02 0.02 0.02 0.03 0.04 0.04 0.04 0.04 0.05 0.07 0.07 0.08 0.06 0.03 0.02 0.02 0.03 0.05 0.05 0.04 0.04 0.05 0.06 0.07 0.08
0.01 0.01 0.01 0.01 0.01 0.01 0.01 0.00 0.00 0.00 0.00 0.00 0.00 0.00 0.00 0.01 0.01 0.02 0.03 0.04 0.03 0.03 0.03 0.03 0.02 0.02 0.02 0.03 0.03 0.04 0.04 0.04 0.04 0.05 0.06 0.06 0.04 0.02 0.02 0.02 0.02 0.02 0.02 0.03 0.03 0.03 0.04 0.05 0.06
0.00 0.01 0.01 0.01 0.02 0.01 0.01 0.00 0.01 0.01 0.01 0.00 0.00 0.00 0.01 0.01 0.01 0.01 0.02 0.03 0.03 0.02 0.03 0.03 0.02 0.02 0.02 0.03 0.04 0.04 0.03 0.03 0.03 0.03 0.04 0.04 0.03 0.03 0.02 0.02 0.02 0.02 0.02 0.02 0.03 0.03 0.04 0.05 0.05
0.01 0.01 0.01 0.01 0.01 0.01 0.01 0.01 0.01 0.01 0.01 0.01 0.00 0.00 0.01 0.01 0.01 0.01 0.01 0.02 0.02 0.01 0.02 0.02 0.02 0.02 0.03 0.03 0.04 0.04 0.03 0.03 0.02 0.02 0.03 0.03 0.02 0.03 0.02 0.02 0.02 0.02 0.02 0.03 0.04 0.04 0.04 0.04 0.05
0.01 0.01 0.01 0.01 0.01 0.01 0.01 0.01 0.01 0.01 0.01 0.01 0.01 0.01 0.00 0.01 0.02 0.02 0.02 0.02 0.02 0.02 0.03 0.03 0.04 0.04 0.04 0.04 0.03 0.03 0.04 0.04 0.03 0.02 0.03 0.03 0.03 0.03 0.03 0.03 0.02 0.02 0.02 0.03 0.03 0.03 0.02 0.03 0.03
MSLP
1006.44 1006.76 1007.14 1007.50 1007.79 1007.97 1008.04 1008.02 1007.98 1007.99 1008.09 1008.33 1008.69 1009.12 1009.57 1009.94 1010.19 1010.28 1010.24 1010.10 1009.96 1009.87 1009.90 1010.06 1010.32 1010.65 1010.97 1011.22 1011.37 1011.43 1011.41 1011.38 1011.40 1011.51 1011.71 1012.00 1012.33 1012.63 1012.87 1013.00 1013.03 1012.98 1012.91 1012.86 1012.86 1012.93 1013.05 1013.19 1013.31
1006.52 1006.87 1007.25 1007.59 1007.84 1007.97 1007.98 1007.93 1007.86 1007.85 1007.95 1008.19 1008.55 1008.98 1009.40 1009.76 1009.98 1010.07 1010.02 1009.92 1009.81 1009.79 1009.88 1010.11 1010.44 1010.81 1011.17 1011.45 1011.62 1011.70 1011.70 1011.70 1011.74 1011.86 1012.07 1012.35 1012.66 1012.94 1013.15 1013.26 1013.27 1013.23 1013.17 1013.14 1013.16 1013.25 1013.39 1013.52 1013.62
1006.70 1007.06 1007.41 1007.70 1007.88 1007.94 1007.89 1007.79 1007.69 1007.68 1007.80 1008.06 1008.43 1008.86 1009.28 1009.62 1009.82 1009.88 1009.84 1009.74 1009.66 1009.67 1009.82 1010.10 1010.48 1010.91 1011.31 1011.64 1011.85 1011.96 1012.01 1012.03 1012.09 1012.23 1012.44 1012.71 1012.99 1013.25 1013.43 1013.52 1013.54 1013.51 1013.47 1013.48 1013.54 1013.65 1013.79 1013.91 1013.96
1006.95 1007.30 1007.60 1007.81 1007.90 1007.86 1007.74 1007.59 1007.48 1007.48 1007.63 1007.92 1008.33 1008.78 1009.21 1009.54 1009.74 1009.78 1009.72 1009.62 1009.55 1009.58 1009.76 1010.08 1010.50 1010.97 1011.42 1011.79 1012.05 1012.20 1012.29 1012.35 1012.44 1012.59 1012.80 1013.05 1013.31 1013.54 1013.71 1013.80 1013.82 1013.82 1013.83 1013.87 1013.96 1014.09 1014.23 1014.32 1014.33
1007.24 1007.55 1007.78 1007.89 1007.86 1007.73 1007.53 1007.33 1007.21 1007.23 1007.43 1007.78 1008.24 1008.74 1009.20 1009.55 1009.74 1009.78 1009.71 1009.61 1009.54 1009.58 1009.77 1010.10 1010.54 1011.03 1011.51 1011.91 1012.20 1012.40 1012.53 1012.63 1012.74 1012.90 1013.11 1013.36 1013.60 1013.82 1013.98 1014.07 1014.12 1014.16 1014.20 1014.28 1014.40 1014.54 1014.66 1014.72 1014.69
1007.49 1007.75 1007.89 1007.89 1007.75 1007.51 1007.24 1007.00 1006.88 1006.94 1007.19 1007.62 1008.15 1008.72 1009.23 1009.62 1009.84 1009.89 1009.83 1009.73 1009.66 1009.70 1009.88 1010.20 1010.64 1011.12 1011.60 1012.00 1012.32 1012.54 1012.70 1012.83 1012.97 1013.15 1013.37 1013.61 1013.85 1014.05 1014.22 1014.33 1014.40 1014.47 1014.55 1014.66 1014.79 1014.92 1015.02 1015.05 1014.98
1007.66 1007.85 1007.89 1007.79 1007.54 1007.22 1006.88 1006.62 1006.51 1006.61 1006.93 1007.43 1008.05 1008.69 1009.27 1009.72 1009.98 1010.07 1010.04 1009.96 1009.91 1009.94 1010.11 1010.41 1010.81 1011.26 1011.70 1012.09 1012.39 1012.62 1012.80 1012.95 1013.11 1013.31 1013.54 1013.78 1014.02 1014.24 1014.41 1014.53 1014.63 1014.72 1014.82 1014.94 1015.08 1015.20 1015.27 1015.28 1015.19
1007.72 1007.83 1007.78 1007.57 1007.24 1006.84 1006.46 1006.20 1006.11 1006.26 1006.64 1007.22 1007.91 1008.63 1009.28 1009.79 1010.12 1010.28 1010.30 1010.26 1010.24 1010.28 1010.44 1010.71 1011.06 1011.45 1011.84 1012.18 1012.45 1012.66 1012.83 1013.00 1013.18 1013.39 1013.63 1013.89 1014.14 1014.36 1014.54 1014.68 1014.79 1014.90 1015.01 1015.13 1015.25 1015.36 1015.41 1015.39 1015.30
1007.66 1007.69 1007.55 1007.26 1006.86 1006.42 1006.03 1005.77 1005.71 1005.91 1006.35 1006.99 1007.75 1008.53 1009.24 1009.82 1010.22 1010.44 1010.54 1010.56 1010.59 1010.66 1010.81 1011.05 1011.36 1011.68 1012.00 1012.27 1012.49 1012.67 1012.83 1012.99 1013.19 1013.41 1013.67 1013.95 1014.21 1014.44 1014.63 1014.78 1014.90 1015.01 1015.12 1015.23 1015.34 1015.42 1015.46 1015.44 1015.35
1007.49 1007.45 1007.24 1006.89 1006.44 1005.99 1005.60 1005.37 1005.36 1005.60 1006.09 1006.77 1007.56 1008.38 1009.13 1009.76 1010.22 1010.52 1010.70 1010.81 1010.89 1011.01 1011.18 1011.40 1011.66 1011.93 1012.18 1012.38 1012.55 1012.69 1012.82 1012.98 1013.18 1013.42 1013.70 1013.98 1014.26 1014.50 1014.70 1014.86 1014.98 1015.09 1015.19 1015.29 1015.38 1015.45 1015.48 1015.46 1015.39
1007.27 1007.16 1006.89 1006.50 1006.04 1005.59 1005.23 1005.04 1005.07 1005.36 1005.87 1006.57 1007.37 1008.19 1008.96 1009.62 1010.13 1010.50 1010.75 1010.94 1011.11 1011.28 1011.48 1011.71 1011.95 1012.17 1012.36 1012.51 1012.62 1012.72 1012.84 1012.99 1013.19 1013.44 1013.73 1014.03 1014.32 1014.57 1014.78 1014.94 1015.07 1015.18 1015.27 1015.37 1015.45 1015.51 1015.54 1015.53 1015.48
1007.06 1006.89 1006.57 1006.15 1005.69 1005.26 1004.95 1004.81 1004.89 1005.20 1005.73 1006.42 1007.20 1008.00 1008.75 1009.41 1009.95 1010.36 1010.69 1010.96 1011.20 1011.44 1011.69 1011.94 1012.18 1012.38 1012.53 1012.64 1012.72 1012.80 1012.89 1013.03 1013.24 1013.50 1013.79 1014.10 1014.40 1014.67 1014.88 1015.05 1015.18 1015.29 1015.39 1015.49 1015.57 1015.64 1015.68 1015.68 1015.66
1006.93 1006.70 1006.34 1005.90 1005.45 1005.06 1004.79 1004.70 1004.82 1005.16 1005.68 1006.34 1007.08 1007.83 1008.54 1009.18 1009.71 1010.16 1010.54 1010.87 1011.19 1011.50 1011.80 1012.09 1012.34 1012.54 1012.68 1012.78 1012.84 1012.91 1012.99 1013.13 1013.33 1013.59 1013.89 1014.20 1014.50 1014.77 1015.00 1015.18 1015.32 1015.45 1015.56 1015.67 1015.77 1015.85 1015.91 1015.93 1015.93
1006.92 1006.63 1006.24 1005.79 1005.35 1004.99 1004.77 1004.72 1004.87 1005.21 1005.72 1006.34 1007.02 1007.71 1008.36 1008.95 1009.47 1009.93 1010.33 1010.72 1011.09 1011.46 1011.81 1012.14 1012.43 1012.65 1012.81 1012.91 1012.98 1013.04 1013.13 1013.27 1013.46 1013.71 1014.00 1014.31 1014.60 1014.87 1015.10 1015.29 1015.46 1015.60 1015.74 1015.88 1016.00 1016.11 1016.20 1016.25 1016.27
1007.02 1006.69 1006.27 1005.82 1005.40 1005.06 1004.87 1004.85 1005.01 1005.35 1005.83 1006.40 1007.01 1007.64 1008.23 1008.77 1009.26 1009.71 1010.13 1010.55 1010.96 1011.37 1011.77 1012.14 1012.45 1012.71 1012.89 1013.02 1013.11 1013.19 1013.28 1013.41 1013.60 1013.83 1014.10 1014.39 1014.67 1014.93 1015.17 1015.38 1015.56 1015.73 1015.90 1016.07 1016.23 1016.38 1016.50 1016.58 1016.62
1007.20 1006.86 1006.42 1005.97 1005.57 1005.26 1005.08 1005.07 1005.23 1005.54 1005.97 1006.48 1007.03 1007.59 1008.13 1008.63 1009.09 1009.53 1009.96 1010.39 1010.82 1011.26 1011.68 1012.08 1012.43 1012.72 1012.94 1013.10 1013.22 1013.32 1013.42 1013.55 1013.72 1013.92 1014.17 1014.43 1014.69 1014.94 1015.18 1015.40 1015.60 1015.81 1016.01 1016.21 1016.41 1016.59 1016.74 1016.86 1016.92
1007.40 1007.06 1006.64 1006.21 1005.83 1005.53 1005.36 1005.34 1005.46 1005.72 1006.09 1006.54 1007.02 1007.53 1008.02 1008.49 1008.94 1009.37 1009.81 1010.24 1010.69 1011.14 1011.58 1012.00 1012.38 1012.69 1012.95 1013.15 1013.30 1013.42 1013.53 1013.66 1013.81 1013.99 1014.20 1014.43 1014.67 1014.91 1015.14 1015.37 1015.59 1015.81 1016.04 1016.27 1016.49 1016.70 1016.89 1017.04 1017.14
1007.54 1007.23 1006.87 1006.48 1006.13 1005.85 1005.67 1005.61 1005.67 1005.85 1006.14 1006.51 1006.93 1007.38 1007.84 1008.30 1008.75 1009.20 1009.64 1010.09 1010.54 1011.00 1011.45 1011.88 1012.28 1012.62 1012.92 1013.15 1013.33 1013.48 1013.61 1013.73 1013.87 1014.02 1014.20 1014.40 1014.62 1014.84 1015.07 1015.30 1015.54 1015.77 1016.01 1016.26 1016.50 1016.73 1016.94 1017.11 1017.24
1007.54 1007.32 1007.04 1006.74 1006.44 1006.17 1005.96 1005.84 1005.81 1005.89 1006.07 1006.34 1006.68 1007.09 1007.53 1007.99 1008.46 1008.93 1009.40 1009.87 1010.34 1010.80 1011.26 1011.71 1012.12 1012.50 1012.83 1013.10 1013.33 1013.50 1013.65 1013.78 1013.90 1014.04 1014.19 1014.37 1014.56 1014.78 1015.01 1015.25 1015.49 1015.73 1015.97 1016.21 1016.44 1016.67 1016.89 1017.08 1017.24
1007.38 1007.29 1007.14 1006.94 1006.71 1006.46 1006.22 1006.02 1005.87 1005.81 1005.85 1006.00 1006.25 1006.60 1007.02 1007.49 1008.00 1008.51 1009.03 1009.53 1010.03 1010.51 1010.99 1011.45 1011.89 1012.30 1012.67 1012.99 1013.26 1013.48 1013.65 1013.79 1013.92 1014.04 1014.18 1014.34 1014.53 1014.75 1014.98 1015.22 1015.46 1015.70 1015.93 1016.15 1016.36 1016.57 1016.78 1016.98 1017.17
1007.06 1007.14 1007.16 1007.09 1006.94 1006.72 1006.44 1006.13 1005.84 1005.61 1005.48 1005.49 1005.63 1005.91 1006.31 1006.79 1007.33 1007.90 1008.47 1009.03 1009.57 1010.09 1010.59 1011.08 1011.56 1012.01 1012.43 1012.81 1013.13 1013.39 1013.60 1013.76 1013.89 1014.02 1014.16 1014.32 1014.51 1014.73 1014.98 1015.23 1015.47 1015.70 1015.91 1016.10 1016.27 1016.45 1016.64 1016.83 1017.03
1006.64 1006.91 1007.11 1007.20 1007.14 1006.94 1006.61 1006.19 1005.74 1005.32 1005.01 1004.84 1004.86 1005.05 1005.41 1005.90 1006.48 1007.10 1007.73 1008.34 1008.94 1009.50 1010.05 1010.58 1011.10 1011.61 1012.09 1012.53 1012.91 1013.22 1013.47 1013.66 1013.81 1013.95 1014.09 1014.25 1014.46 1014.69 1014.95 1015.22 1015.47 1015.69 1015.88 1016.03 1016.17 1016.31 1016.46 1016.64 1016.83
1006.19 1006.66 1007.04 1007.28 1007.31 1007.13 1006.75 1006.21 1005.60 1004.99 1004.48 1004.14 1004.01 1004.11 1004.42 1004.89 1005.49 1006.16 1006.84 1007.51 1008.16 1008.77 1009.36 1009.95 1010.52 1011.09 1011.63 1012.14 1012.58 1012.95 1013.24 1013.46 1013.63 1013.77 1013.92 1014.09 1014.31 1014.56 1014.84 1015.12 1015.39 1015.61 1015.78 1015.91 1016.01 1016.10 1016.22 1016.37 1016.57
1005.79 1006.43 1006.98 1007.34 1007.45 1007.28 1006.85 1006.21 1005.44 1004.65 1003.96 1003.46 1003.19 1003.18 1003.43 1003.88 1004.49 1005.18 1005.90 1006.61 1007.29 1007.94 1008.58 1009.21 1009.84 1010.46 1011.07 1011.64 1012.14 1012.56 1012.89 1013.13 1013.31 1013.46 1013.60 1013.78 1014.00 1014.27 1014.57 1014.87 1015.15 1015.38 1015.55 1015.66 1015.74 1015.80 1015.88 1016.02 1016.21
1005.47 1006.24 1006.91 1007.36 1007.52 1007.36 1006.89 1006.15 1005.27 1004.34 1003.50 1002.86 1002.47 1002.38 1002.56 1002.98 1003.57 1004.26 1004.99 1005.71 1006.41 1007.09 1007.75 1008.41 1009.08 1009.75 1010.41 1011.03 1011.59 1012.05 1012.40 1012.66 1012.84 1012.98 1013.12 1013.29 1013.51 1013.78 1014.10 1014.42 1014.72 1014.97 1015.15 1015.26 1015.32 1015.36 1015.42 1015.54 1015.72
1005.22 1006.06 1006.79 1007.29 1007.48 1007.32 1006.81 1006.02 1005.06 1004.04 1003.11 1002.38 1001.92 1001.77 1001.90 1002.29 1002.85 1003.52 1004.23 1004.93 1005.62 1006.29 1006.94 1007.61 1008.30 1009.00 1009.70 1010.36 1010.95 1011.44 1011.81 1012.08 1012.25 1012.37 1012.49 1012.64 1012.84 1013.11 1013.43 1013.77 1014.09 1014.36 1014.56 1014.68 1014.74 1014.78 1014.83 1014.93 1015.11
1004.99 1005.83 1006.57 1007.07 1007.25 1007.08 1006.56 1005.75 1004.76 1003.73 1002.78 1002.03 1001.55 1001.38 1001.50 1001.86 1002.39 1003.02 1003.69 1004.35 1004.99 1005.61 1006.24 1006.88 1007.56 1008.27 1008.98 1009.66 1010.27 1010.78 1011.17 1011.43 1011.59 1011.69 1011.78 1011.89 1012.07 1012.32 1012.63 1012.98 1013.31 1013.60 1013.82 1013.96 1014.03 1014.07 1014.12 1014.21 1014.38
1004.69 1005.47 1006.15 1006.61 1006.76 1006.58 1006.06 1005.28 1004.33 1003.35 1002.46 1001.77 1001.34 1001.21 1001.34 1001.70 1002.21 1002.80 1003.41 1004.01 1004.58 1005.13 1005.69 1006.29 1006.93 1007.62 1008.32 1009.01 1009.63 1010.15 1010.54 1010.80 1010.94 1011.02 1011.07 1011.15 1011.30 1011.52 1011.81 1012.14 1012.48 1012.78 1013.01 1013.16 1013.25 1013.29 1013.34 1013.42 1013.58
1004.24 1004.92 1005.49 1005.87 1005.98 1005.78 1005.29 1004.58 1003.73 1002.87 1002.11 1001.55 1001.24 1001.20 1001.40 1001.79 1002.30 1002.86 1003.41 1003.93 1004.41 1004.87 1005.35 1005.88 1006.46 1007.11 1007.79 1008.46 1009.09 1009.61 1010.00 1010.26 1010.40 1010.46 1010.48 1010.53 1010.63 1010.81 1011.07 1011.37 1011.69 1011.99 1012.22 1012.38 1012.47 1012.51 1012.54 1012.61 1012.75
1003.62 1004.16 1004.61 1004.89 1004.94 1004.74 1004.30 1003.68 1002.97 1002.28 1001.71 1001.33 1001.19 1001.28 1001.59 1002.05 1002.58 1003.13 1003.63 1004.08 1004.48 1004.85 1005.24 1005.68 1006.20 1006.79 1007.43 1008.08 1008.70 1009.22 1009.62 1009.89 1010.02 1010.07 1010.07 1010.09 1010.15 1010.28 1010.49 1010.75 1011.04 1011.30 1011.52 1011.66 1011.73 1011.76 1011.77 1011.81 1011.91
Thickness
5811 5816 5820 5817 5811 5811 5805 5812 5817 5816 5817 5823 5823 5819 5814 5809 5802 5793 5813 5820 5817 5813 5805 5796 5791 5788 5786 5784 5781 5779 5777 5775 5773 5772 5770 5769 5769 5768 5768 5767 5766 5764 5763 5763 5762 5761 5760 5760 5759
5817 5818 5816 5815 5810 5800 5802 5815 5813 5815 5820 5824 5822 5818 5813 5810 5815 5813 5815 5815 5815 5811 5805 5797 5789 5786 5784 5782 5779 5777 5775 5774 5772 5770 5768 5768 5767 5766 5765 5764 5764 5763 5761 5761 5760 5759 5759 5758 5757
5817 5817 5813 5814 5807 5803 5803 5814 5815 5819 5824 5821 5817 5818 5813 5808 5814 5815 5817 5815 5813 5809 5803 5794 5788 5785 5782 5780 5778 5775 5773 5772 5770 5768 5767 5766 5765 5764 5763 5762 5761 5760 5759 5758 5758 5758 5757 5756 5755
5814 5812 5813 5808 5801 5809 5812 5815 5817 5815 5818 5821 5818 5811 5814 5817 5818 5819 5817 5815 5811 5807 5802 5793 5786 5783 5780 5778 5776 5774 5772 5770 5769 5767 5765 5764 5763 5761 5761 5760 5759 5758 5757 5756 5756 5755 5755 5754 5754
5813 5810 5803 5799 5802 5811 5818 5819 5819 5814 5813 5816 5815 5807 5806 5816 5821 5819 5815 5812 5808 5805 5801 5792 5784 5781 5778 5776 5774 5772 5770 5768 5766 5765 5763 5762 5760 5759 5758 5757 5757 5756 5755 5754 5754 5753 5753 5753 5752
5806 5807 5795 5793 5800 5809 5816 5820 5818 5815 5815 5816 5813 5807 5806 5816 5815 5814 5814 5810 5808 5802 5798 5790 5782 5779 5776 5774 5771 5769 5767 5765 5764 5762 5761 5759 5758 5756 5755 5755 5754 5753 5753 5752 5751 5751 5751 5750 5750
5799 5799 5793 5797 5798 5802 5810 5819 5815 5812 5811 5813 5817 5806 5807 5812 5814 5813 5811 5808 5804 5800 5795 5790 5785 5778 5774 5771 5769 5767 5765 5763 5761 5759 5758 5757 5756 5754 5753 5752 5751 5751 5751 5750 5750 5749 5749 5748 5748
5805 5799 5793 5796 5794 5798 5811 5815 5817 5813 5811 5820 5819 5807 5805 5810 5813 5810 5807 5803 5800 5796 5793 5788 5785 5781 5776 5772 5767 5765 5762 5760 5759 5757 5756 5755 5754 5752 5751 5751 5749 5749 5749 5748 5748 5747 5747 5746 5746
5801 5789 5787 5794 5794 5799 5810 5808 5814 5820 5814 5814 5818 5816 5816 5815 5810 5804 5799 5796 5794 5791 5790 5787 5784 5780 5777 5774 5768 5764 5761 5758 5757 5755 5754 5754 5755 5753 5751 5749 5747 5747 5746 5746 5745 5745 5744 5744 5745
5791 5783 5790 5801 5804 5803 5806 5806 5808 5809 5805 5806 5810 5813 5814 5810 5805 5800 5795 5791 5789 5787 5787 5785 5782 5779 5776 5773 5768 5765 5762 5759 5757 5756 5754 5754 5752 5752 5750 5746 5746 5746 5745 5744 5744 5743 5744 5745 5746
5788 5785 5794 5799 5803 5802 5801 5803 5809 5804 5797 5803 5804 5807 5808 5805 5802 5799 5796 5793 5790 5788 5784 5783 5780 5777 5774 5771 5768 5765 5763 5758 5757 5754 5752 5751 5750 5750 5749 5748 5745 5744 5744 5745 5744 5745 5746 5746 5745
5783 5787 5792 5795 5799 5797 5798 5801 5801 5801 5803 5812 5812 5811 5806 5802 5800 5797 5795 5792 5790 5786 5782 5780 5777 5774 5771 5769 5766 5763 5762 5759 5757 5752 5751 5750 5749 5748 5747 5746 5745 5745 5744 5743 5743 5744 5743 5743 5743
5778 5782 5789 5793 5795 5796 5796 5796 5797 5799 5808 5811 5810 5806 5803 5801 5800 5799 5797 5793 5789 5783 5780 5777 5775 5771 5767 5764 5763 5762 5759 5758 5755 5751 5749 5748 5748 5747 5746 5744 5742 5743 5743 5742 5741 5742 5741 5741 5742
5780 5782 5785 5790 5792 5793 5790 5793 5794 5797 5806 5804 5802 5800 5801 5799 5797 5795 5791 5787 5785 5781 5778 5776 5772 5768 5764 5762 5760 5759 5757 5754 5754 5751 5748 5746 5746 5744 5744 5742 5740 5741 5740 5740 5739 5739 5738 5739 5739
5778 5772 5778 5785 5788 5791 5789 5782 5789 5799 5801 5798 5797 5797 5796 5796 5795 5790 5788 5786 5783 5779 5776 5772 5769 5766 5762 5760 5759 5757 5756 5753 5752 5749 5746 5744 5743 5742 5741 5740 5739 5739 5738 5737 5737 5737 5737 5737 5737
5770 5765 5765 5780 5785 5787 5778 5773 5791 5799 5795 5791 5793 5793 5792 5792 5792 5790 5788 5785 5782 5778 5774 5771 5769 5764 5760 5758 5756 5756 5753 5751 5750 5748 5745 5742 5741 5739 5739 5739 5739 5736 5735 5735 5735 5735 5735 5735 5734
5760 5758 5763 5772 5782 5782 5777 5774 5789 5795 5791 5787 5789 5789 5789 5788 5788 5788 5787 5784 5781 5777 5772 5768 5766 5762 5759 5756 5754 5753 5750 5748 5747 5746 5744 5741 5739 5738 5738 5738 5736 5734 5734 5733 5733 5734 5733 5731 5731
5753 5758 5762 5765 5775 5775 5772 5775 5784 5789 5787 5785 5786 5786 5784 5783 5783 5784 5783 5781 5778 5774 5770 5767 5763 5760 5757 5754 5751 5750 5748 5746 5745 5744 5741 5739 5738 5737 5737 5736 5733 5733 5732 5730 5729 5728 5728 5728 5728
5757 5755 5756 5763 5773 5768 5767 5770 5777 5783 5782 5781 5782 5782 5780 5781 5783 5781 5778 5776 5773 5770 5766 5764 5761 5758 5754 5751 5749 5746 5745 5744 5742 5741 5738 5737 5736 5735 5734 5735 5731 5730 5730 5728 5728 5726 5726 5726 5727
5748 5747 5752 5759 5767 5762 5762 5765 5775 5779 5778 5779 5778 5778 5777 5777 5776 5774 5772 5771 5768 5766 5763 5761 5758 5756 5753 5750 5748 5746 5744 5742 5741 5739 5736 5734 5733 5732 5732 5730 5730 5728 5726 5725 5724 5722 5724 5725 5724
5742 5744 5749 5749 5756 5760 5755 5757 5765 5774 5777 5776 5777 5778 5777 5775 5772 5770 5768 5766 5765 5763 5761 5759 5756 5753 5751 5748 5746 5743 5740 5738 5736 5735 5734 5732 5731 5729 5728 5727 5727 5726 5726 5724 5722 5720 5719 5720 5721
5737 5751 5748 5745 5743 5747 5749 5743 5760 5767 5765 5767 5770 5773 5772 5772 5770 5768 5766 5763 5762 5761 5760 5756 5753 5750 5748 5745 5743 5740 5737 5734 5733 5732 5731 5730 5728 5727 5725 5725 5724 5723 5723 5721 5720 5720 5719 5717 5717
5743 5751 5745 5743 5740 5739 5747 5740 5756 5763 5756 5761 5765 5767 5768 5768 5767 5765 5764 5762 5761 5759 5757 5753 5750 5746 5744 5743 5740 5737 5735 5733 5732 5731 5727 5726 5725 5724 5723 5722 5720 5719 5719 5718 5717 5716 5715 5716 5714
5746 5740 5737 5738 5738 5724 5741 5737 5744 5758 5757 5758 5761 5762 5762 5763 5763 5762 5762 5760 5757 5755 5753 5750 5745 5742 5741 5739 5737 5733 5731 5728 5726 5724 5723 5723 5723 5721 5720 5719 5717 5716 5716 5715 5714 5713 5712 5712 5711
5736 5724 5716 5715 5718 5726 5744 5735 5740 5756 5759 5757 5756 5757 5758 5760 5759 5756 5755 5754 5752 5749 5748 5746 5742 5738 5736 5734 5733 5730 5727 5724 5721 5721 5720 5719 5719 5718 5716 5717 5714 5714 5713 5712 5711 5710 5710 5709 5707
5730 5727 5714 5708 5716 5731 5733 5730 5743 5754 5755 5755 5755 5754 5754 5754 5755 5752 5751 5750 5748 5746 5744 5742 5738 5735 5733 5731 5728 5726 5723 5722 5720 5717 5717 5716 5716 5716 5714 5713 5712 5712 5711 5710 5708 5708 5707 5706 5704
5723 5724 5735 5724 5722 5719 5729 5734 5739 5747 5746 5747 5747 5747 5747 5748 5749 5748 5747 5746 5745 5742 5740 5738 5735 5732 5729 5727 5724 5721 5719 5718 5716 5714 5712 5712 5711 5712 5710 5709 5709 5708 5707 5706 5705 5704 5703 5703 5701
5731 5729 5722 5714 5701 5703 5720 5724 5730 5732 5736 5739 5739 5739 5741 5743 5743 5743 5743 5741 5740 5739 5736 5734 5732 5728 5726 5723 5720 5718 5715 5713 5711 5710 5708 5707 5707 5706 5706 5705 5704 5704 5703 5702 5701 5700 5699 5698 5696
5715 5716 5717 5718 5718 5707 5707 5720 5739 5734 5733 5732 5733 5735 5736 5738 5738 5738 5737 5737 5735 5734 5732 5728 5726 5723 5721 5719 5716 5712 5710 5708 5706 5704 5703 5702 5702 5701 5700 5699 5699 5699 5698 5697 5696 5696 5695 5693 5691
5716 5715 5712 5701 5704 5711 5711 5716 5733 5733 5731 5729 5728 5729 5732 5733 5735 5734 5732 5731 5729 5728 5726 5723 5721 5719 5716 5714 5710 5707 5705 5703 5700 5699 5698 5697 5696 5695 5695 5694 5694 5694 5693 5692 5691 5690 5690 5688 5687